Theta_e
316 326 318 324 326 323 323 324 326 337 337 336 335 339 340 339 340 342 340 340 339 339 342 324 317 316 316 315 314 313 315 317 322 328 330 329 326 321 317 316 317 315 316 316 317 317 318 321 320
327 324 320 323 323 324 324 326 329 334 336 336 337 340 339 340 338 338 337 340 340 341 343 337 317 316 316 314 314 314 313 314 315 316 316 316 315 314 313 311 311 313 325 326 324 321 320 322 326
328 318 322 323 322 323 325 325 330 330 333 337 338 336 339 340 339 337 337 339 340 343 343 338 317 316 315 314 313 314 314 313 313 313 313 313 312 311 311 311 311 313 320 327 327 322 327 328 329
322 321 322 323 324 323 324 331 328 333 333 335 337 337 335 337 339 337 339 338 340 342 342 339 319 317 316 314 313 314 314 313 313 312 312 312 312 312 312 312 313 315 324 327 327 327 329 330 333
323 322 320 322 322 324 325 325 330 333 331 332 335 337 337 337 339 337 338 337 338 341 341 341 327 317 316 314 313 313 314 313 313 313 313 312 313 313 313 314 315 319 327 329 327 329 330 332 335
323 323 322 322 323 323 324 324 325 328 329 330 334 336 337 338 339 337 338 339 338 340 341 340 330 318 317 315 313 312 314 314 313 313 313 313 314 314 314 315 317 321 331 334 334 330 331 333 335
325 321 321 321 321 321 322 323 324 326 328 333 335 337 337 337 338 338 339 340 340 342 343 341 344 326 318 316 314 313 313 314 314 314 314 314 315 315 316 316 318 321 327 333 335 334 334 333 331
326 326 325 323 321 322 322 325 324 325 327 333 335 338 338 337 339 341 340 341 342 343 343 344 344 342 339 336 318 314 312 312 314 314 314 315 316 316 317 317 320 322 325 331 334 336 336 336 332
324 327 327 325 323 321 322 323 324 326 330 332 333 335 332 334 339 341 340 339 339 340 343 344 343 343 342 338 337 320 317 315 314 317 317 320 330 332 331 328 329 322 325 331 333 335 336 336 331
327 328 328 326 324 321 320 322 324 327 328 333 332 331 330 331 338 340 341 339 339 341 343 344 345 344 344 340 339 342 338 337 335 332 334 333 332 332 332 331 329 326 325 331 332 335 337 337 337
329 329 328 328 325 321 320 323 324 325 327 333 334 332 331 330 332 333 336 337 339 339 339 343 346 346 345 343 341 341 341 339 338 336 334 335 332 332 333 332 334 333 330 335 334 337 338 338 337
327 328 329 328 326 322 322 322 323 324 324 329 330 330 329 331 332 332 332 332 333 332 333 335 343 347 347 344 343 343 342 341 340 339 337 335 335 334 335 333 333 333 332 334 336 338 339 339 338
324 325 326 327 327 327 324 324 325 326 326 326 326 327 329 331 332 331 330 331 331 332 332 332 335 346 348 348 344 344 344 342 342 341 340 339 336 335 336 333 332 332 332 334 335 336 339 338 338
320 321 323 325 326 328 328 329 329 329 329 330 331 332 332 330 330 330 330 330 330 330 332 333 334 339 345 340 343 344 346 343 343 342 340 341 338 336 335 334 334 332 332 333 333 335 337 337 337
317 318 320 323 324 326 326 330 331 329 329 331 331 331 331 331 330 330 329 329 331 331 331 334 334 335 337 340 339 342 341 343 341 342 342 341 341 337 336 335 334 332 332 332 333 334 337 337 337
315 317 319 320 322 323 325 330 330 329 329 330 330 330 330 330 330 329 329 329 331 332 332 333 331 329 331 334 337 338 339 341 342 341 342 342 342 341 338 336 334 332 332 333 333 333 334 335 336
316 317 318 319 320 322 322 326 327 327 327 328 329 329 329 329 330 328 328 329 329 330 332 332 332 332 333 332 337 338 342 343 342 342 342 342 342 342 340 339 335 333 332 332 332 333 332 334 338
314 317 317 317 319 321 322 323 323 324 326 326 327 328 328 328 328 327 327 327 327 328 330 331 329 330 336 333 338 339 342 343 342 342 342 342 342 342 341 339 337 336 334 332 332 331 333 339 337
312 315 317 318 318 319 321 322 323 324 324 325 326 326 327 327 327 325 325 325 326 326 328 331 332 335 337 333 336 339 341 343 343 343 343 343 342 342 341 341 340 338 334 333 333 333 339 337 335
311 313 316 317 317 319 320 321 322 322 323 324 325 326 326 326 326 326 325 325 326 327 329 332 333 334 337 333 338 338 341 342 344 344 344 343 343 343 341 341 340 338 336 334 333 338 337 336 337
310 311 313 315 316 318 319 321 322 322 323 323 323 324 324 324 325 325 325 324 324 326 328 331 332 335 336 335 339 344 345 344 342 342 344 344 343 341 341 341 340 339 336 336 338 338 337 335 335
310 309 310 313 316 318 319 321 321 321 322 322 322 323 323 324 324 324 324 325 324 325 325 327 330 332 334 338 339 344 344 343 342 344 344 342 341 342 343 342 341 339 338 340 338 337 336 336 335
310 309 309 312 314 317 317 319 319 320 321 321 322 322 322 322 323 323 323 323 322 322 323 325 327 330 335 339 341 345 344 344 345 345 342 341 342 343 343 342 341 341 340 339 336 337 338 336 334
310 309 310 310 313 316 317 318 319 319 320 320 320 321 321 320 321 321 322 321 321 322 323 324 327 335 340 343 344 346 345 345 346 347 345 345 345 344 343 341 340 340 338 340 338 337 336 335 331
309 309 311 312 313 314 315 316 317 319 318 318 319 319 320 321 322 322 323 324 324 325 327 334 339 343 344 344 344 346 348 347 348 347 347 346 344 343 343 342 340 339 339 338 337 336 334 333 331
310 309 311 312 313 313 312 314 316 316 317 318 318 320 320 322 326 327 328 327 325 325 332 339 342 345 345 345 346 347 348 348 348 347 346 344 342 339 341 341 340 339 338 337 336 334 332 332 333
313 312 311 311 312 315 312 313 314 315 317 318 319 319 324 327 330 334 334 333 332 334 339 342 345 346 346 347 347 348 347 347 346 345 342 339 337 340 340 339 339 338 336 335 334 332 333 333 333
311 311 311 311 317 315 313 314 315 316 316 316 320 321 321 326 334 336 336 339 338 340 343 345 346 347 346 346 346 345 345 344 344 341 338 338 339 338 339 338 337 335 334 334 333 333 334 333 333
312 311 315 314 315 313 313 314 316 318 320 321 320 320 322 330 339 339 340 339 341 345 346 347 347 346 346 345 344 344 343 340 339 339 339 339 339 338 336 334 333 333 333 334 334 334 333 333 332
312 312 315 320 315 314 315 317 319 320 319 319 319 319 321 328 339 338 339 342 346 346 346 346 346 345 344 343 342 340 339 339 339 338 338 338 335 333 332 332 332 333 333 334 334 333 332 332 328
Wind_Speed
12 4 5 7 7 7 13 8 9 8 9 2 3 5 14 10 16 1 5 18 16 26 28 32 30 29 29 28 27 26 26 26 25 25 24 22 20 18 17 14 12 11 10 10 9 8 7 6 4
9 7 7 4 8 11 11 12 11 9 3 2 6 8 11 8 8 2 10 16 18 24 27 30 32 30 30 30 29 28 27 26 26 26 24 23 22 20 18 17 15 13 12 11 10 8 7 6 4
10 8 6 5 12 14 10 9 11 2 3 4 6 7 6 10 6 2 12 20 19 23 25 29 34 32 31 30 30 29 28 27 26 25 24 24 23 21 20 19 17 15 14 12 10 9 7 6 5
9 7 5 10 17 18 14 4 8 3 2 4 3 5 3 4 2 9 17 20 20 21 24 29 34 34 32 30 30 29 29 28 26 26 25 24 22 21 19 18 17 15 15 14 12 10 9 7 6
9 4 11 16 22 19 12 14 8 8 5 7 6 8 5 7 6 13 23 21 19 19 21 21 32 34 32 31 30 29 28 27 26 26 25 22 21 20 18 17 16 16 15 15 14 12 9 8 7
6 5 12 18 21 18 16 14 13 14 12 11 9 14 9 6 11 18 20 18 16 17 18 19 29 34 32 31 31 30 29 28 27 26 25 23 22 21 20 18 17 16 15 15 14 13 10 8 8
14 10 17 19 16 16 18 14 15 15 14 12 8 16 5 8 10 16 16 15 15 15 16 17 19 31 34 31 30 30 31 30 29 28 27 25 24 23 22 21 18 17 16 16 14 12 10 9 8
11 11 22 20 17 22 14 10 16 13 18 2 4 8 10 6 6 14 15 14 14 14 14 15 16 20 23 24 31 31 32 32 31 31 30 28 26 25 24 22 20 18 17 16 14 13 11 10 9
13 11 17 22 19 14 6 16 18 7 12 9 2 1 7 1 9 13 15 15 15 14 14 14 15 18 21 23 23 33 34 33 32 32 32 29 23 22 22 22 22 20 18 17 15 14 13 12 10
16 16 26 20 14 8 17 16 13 7 16 14 11 7 5 6 7 13 15 16 18 15 12 13 15 18 19 20 21 21 25 27 29 29 28 29 26 24 24 23 25 22 19 17 16 15 14 12 10
22 26 22 22 15 12 18 18 13 13 18 17 16 10 6 4 3 5 12 13 11 10 10 13 16 18 20 20 20 21 22 25 28 29 30 28 27 26 25 23 23 21 21 17 16 16 14 14 11
26 25 25 26 16 13 21 20 23 21 21 18 7 8 11 13 10 8 8 11 13 12 7 11 15 18 21 19 20 21 23 24 26 27 31 30 29 27 25 25 22 22 20 19 16 15 15 14 12
29 29 25 23 23 19 18 25 24 24 20 21 20 18 19 16 17 16 15 16 15 15 12 9 12 17 17 19 20 23 26 25 26 26 27 31 30 29 27 26 25 22 21 19 18 17 15 14 14
16 24 29 28 24 21 25 28 23 26 21 23 22 23 22 19 16 16 15 17 16 18 18 15 13 14 15 19 21 23 23 25 24 25 26 30 30 28 28 27 25 24 22 20 19 17 16 16 15
23 26 25 23 26 30 19 28 37 30 24 24 21 21 22 21 21 18 20 20 22 21 19 18 15 14 17 20 22 22 24 22 24 25 25 27 30 28 27 26 25 24 22 20 18 16 16 15 15
17 22 24 32 25 21 22 33 37 27 27 26 27 24 23 23 22 24 23 20 19 21 17 16 18 17 18 21 21 21 22 21 22 22 22 25 26 28 26 25 25 24 21 20 19 18 16 15 16
20 25 30 27 28 24 20 34 36 31 28 25 24 24 22 23 20 18 18 20 20 18 17 20 20 20 20 20 19 20 19 20 20 20 20 22 24 25 25 23 23 22 22 20 18 16 16 16 12
26 25 25 27 23 27 30 35 29 25 17 18 22 25 24 23 21 21 20 20 21 19 18 21 25 23 18 16 16 17 19 19 18 19 19 19 21 22 24 21 20 20 21 19 18 17 15 12 12
25 28 24 20 20 25 25 31 33 28 30 31 26 22 23 22 21 24 24 23 22 23 24 24 23 20 16 15 17 17 19 18 17 17 17 18 19 21 23 19 19 19 20 19 18 17 15 11 11
21 24 29 24 13 18 24 31 31 27 29 28 27 26 24 23 22 21 26 24 25 25 23 25 23 19 18 15 16 15 14 16 15 14 15 18 19 20 21 19 18 19 18 18 18 18 12 11 9
22 25 24 27 22 19 21 28 28 26 24 22 23 24 24 25 24 23 22 27 28 27 24 22 19 16 17 17 15 14 12 10 13 15 15 18 19 20 19 18 17 18 17 18 18 16 14 11 9
21 21 25 24 22 24 20 22 23 24 28 29 29 26 26 25 25 24 23 24 27 28 26 24 21 17 16 17 18 19 17 13 12 16 16 18 19 18 18 18 16 18 17 17 16 14 12 12 9
22 19 21 21 22 24 29 19 22 18 22 22 20 22 23 22 24 24 21 22 24 24 26 25 21 18 18 18 18 19 15 12 15 17 21 19 20 18 19 17 17 17 16 15 15 13 13 10 12
20 22 20 22 19 20 25 21 20 21 25 23 19 20 20 21 20 15 15 19 22 19 17 17 17 16 15 17 18 18 16 14 17 19 21 20 20 19 19 19 17 16 15 14 12 12 11 11 9
18 17 12 15 18 22 23 20 19 6 8 4 6 7 11 11 13 13 12 13 15 15 14 12 12 13 14 17 17 16 16 16 19 23 21 21 20 19 19 19 17 15 12 11 11 10 9 10 11
19 19 13 19 16 20 27 27 21 22 25 20 17 9 8 9 10 11 13 10 11 12 12 11 13 14 17 18 18 17 18 19 20 18 21 19 18 18 19 16 14 12 12 11 10 10 10 10 11
20 18 20 23 21 16 17 26 26 21 13 8 8 4 6 11 12 13 12 7 8 9 11 13 15 17 19 20 20 20 19 20 19 20 18 18 16 16 16 14 13 11 9 9 10 9 11 11 11
15 16 13 13 8 18 15 20 15 24 23 17 4 5 10 13 13 10 4 3 5 8 12 15 18 21 21 21 22 21 21 20 20 20 18 16 15 15 14 12 10 9 9 9 9 10 10 11 10
10 13 13 7 13 13 11 14 20 9 12 9 6 10 14 14 12 8 5 1 7 13 18 20 21 23 23 23 22 22 21 21 20 19 17 16 14 13 11 11 10 9 8 8 9 7 8 11 11
5 10 5 7 12 16 13 4 12 18 13 6 9 13 15 15 13 6 2 3 11 17 20 21 22 24 23 23 23 22 21 20 19 18 16 14 13 12 11 10 9 8 7 7 7 8 10 11 14
Wind_Direction
215 221 210 220 232 240 236 220 245 180 194 145 284 194 209 190 178 192 111 154 155 164 173 181 187 187 186 188 187 186 185 184 184 187 188 188 191 194 195 193 191 186 179 172 169 166 160 154 153
181 190 208 243 248 222 224 212 206 204 96 227 206 220 217 206 216 41 140 157 158 165 173 179 190 193 191 190 190 188 189 190 191 191 191 192 192 195 194 190 186 182 174 172 167 164 160 154 154
174 204 243 229 233 242 231 173 208 193 259 245 186 220 182 244 220 242 127 155 157 170 178 184 192 195 196 194 193 191 193 195 195 196 196 194 193 193 192 189 185 180 176 175 173 172 173 171 175
182 193 236 243 235 227 253 87 143 191 162 196 199 202 188 235 255 195 157 158 163 173 186 193 195 196 197 200 200 196 195 198 199 200 200 196 196 195 195 191 187 182 178 179 181 182 188 192 192
215 244 239 234 243 244 243 257 246 256 276 255 233 235 221 176 180 163 162 167 171 178 189 197 199 198 200 202 205 204 202 203 204 206 205 203 200 201 200 197 193 190 186 185 185 191 195 204 207
217 267 237 237 240 244 249 250 259 253 258 261 247 233 220 138 176 167 166 171 177 182 189 193 204 202 205 207 208 209 209 208 211 211 212 208 208 207 205 203 198 197 196 195 193 194 200 209 224
233 216 244 255 258 264 256 271 249 257 261 255 232 210 177 180 153 170 168 171 181 187 191 193 200 205 209 213 214 214 214 214 212 215 218 214 213 213 210 206 203 203 201 204 204 202 206 214 230
230 253 250 247 245 249 247 248 240 252 246 58 220 213 184 123 180 173 176 180 187 191 195 200 201 208 208 211 219 223 223 221 219 218 220 219 217 218 215 212 209 208 207 208 207 210 214 220 227
233 242 245 244 240 245 260 247 251 246 264 201 174 38 65 19 179 180 187 193 198 201 201 205 209 210 214 214 221 225 227 228 226 224 223 221 214 218 216 213 215 212 210 209 210 213 216 221 232
218 228 242 249 258 228 247 256 266 245 229 224 212 170 139 84 171 197 200 204 208 209 215 218 213 215 215 218 222 224 223 223 222 219 216 212 214 215 214 217 212 217 214 213 214 217 217 223 233
224 240 245 250 250 251 256 256 247 248 249 217 217 198 202 301 227 222 221 239 206 220 232 231 223 218 215 220 223 227 228 227 227 222 216 215 212 216 216 214 216 214 216 216 220 223 221 228 237
239 244 244 258 246 244 248 261 257 253 249 249 230 224 273 287 283 274 259 231 238 243 254 245 230 220 220 220 228 231 232 229 227 224 216 212 211 214 215 214 213 211 213 217 217 226 228 227 236
237 240 246 244 255 245 256 250 252 251 249 254 256 257 259 265 271 269 269 267 270 269 279 246 245 224 223 228 233 236 235 234 233 227 221 215 215 214 212 215 214 212 213 214 215 219 225 229 239
241 244 249 254 243 244 246 255 253 246 249 259 261 259 260 259 258 259 262 263 262 266 267 264 252 226 228 241 244 238 242 239 236 232 226 218 217 216 213 213 215 216 215 214 217 220 223 229 237
256 262 261 246 248 243 246 262 251 250 244 254 257 258 259 258 258 255 258 250 252 260 261 261 248 245 242 248 256 248 245 241 236 230 226 221 217 218 214 217 218 220 217 214 215 218 222 229 236
256 251 249 239 233 240 234 253 251 246 242 240 250 255 258 260 259 260 257 254 249 241 248 249 255 253 256 256 252 249 244 237 235 228 222 219 217 214 212 216 220 220 216 213 213 218 222 234 241
240 245 240 251 236 224 216 246 253 257 264 253 249 259 261 262 260 255 253 255 253 252 249 251 252 265 269 258 251 244 240 233 227 222 217 216 212 211 211 214 218 213 215 214 211 213 225 235 245
239 242 247 257 253 222 229 242 249 260 253 247 253 252 257 258 261 264 261 261 262 262 253 253 264 264 249 249 245 236 233 228 222 217 213 208 205 205 206 212 210 202 208 207 208 216 224 232 245
266 269 268 261 270 253 243 244 251 245 251 257 258 255 258 265 272 276 275 272 263 261 257 255 256 253 239 231 230 227 224 219 215 209 205 200 197 199 201 203 199 198 202 203 205 210 213 227 234
264 260 258 259 275 269 242 251 251 248 250 253 255 255 263 267 267 269 268 266 264 262 257 254 250 245 236 231 229 233 224 213 204 200 195 194 195 194 193 193 191 193 194 196 201 199 206 221 216
254 254 258 254 253 237 252 254 253 252 254 256 259 259 261 265 268 268 268 266 265 260 254 251 247 233 230 228 220 209 187 168 177 187 186 188 186 183 183 183 185 185 188 190 195 198 206 222 226
267 259 254 258 251 245 230 258 249 242 245 245 250 252 257 261 262 264 265 264 262 263 259 255 248 240 234 218 212 201 191 180 188 177 175 169 174 174 176 176 177 177 184 180 192 203 215 226 229
262 262 255 246 251 250 242 253 260 255 255 257 257 256 255 262 258 259 263 266 266 261 256 248 244 239 229 212 205 194 199 179 166 162 151 158 164 167 166 167 170 175 185 186 195 199 213 217 240
259 257 246 248 249 239 237 238 252 252 256 255 254 255 249 252 260 262 271 271 251 249 244 237 229 222 205 192 189 186 183 168 156 146 148 152 158 159 166 169 172 178 188 191 198 211 213 225 230
234 243 240 228 226 241 237 234 238 266 111 332 230 286 267 254 263 268 270 265 234 230 224 220 207 192 179 175 174 177 170 164 154 155 153 153 157 162 166 170 175 184 193 198 200 209 211 210 217
222 234 235 242 235 232 227 236 227 235 263 272 251 257 279 279 294 285 285 261 251 223 207 201 183 168 164 158 156 155 153 152 150 148 146 153 159 159 161 170 182 187 192 196 202 205 206 207 211
227 248 261 268 285 280 232 211 248 255 232 235 212 277 332 325 322 303 283 257 235 192 179 182 164 154 153 145 141 142 142 142 135 137 143 148 146 148 156 165 173 183 193 198 197 210 209 210 214
254 227 248 240 265 259 239 198 218 210 217 252 115 1 347 345 341 320 294 250 206 175 170 156 152 147 141 137 136 136 133 131 134 137 141 143 141 147 154 162 172 178 184 191 206 216 220 220 217
272 239 209 213 287 281 243 210 207 200 105 105 58 11 5 357 1 344 358 154 162 164 142 142 139 137 135 133 131 130 129 132 136 138 139 139 141 148 154 158 161 171 184 200 218 227 228 218 194
175 245 342 267 232 249 273 321 107 119 133 82 16 8 360 2 20 359 23 149 165 138 137 136 137 134 131 131 128 128 132 135 137 138 138 142 142 147 149 154 165 177 193 211 233 234 220 200 180